[[{"header":{"parameterUnit":"m.s-1","parameterCategory":1,"la1":30.2991,"la2":30.254,"lo1":-89.0895,"lo2":-89.0444,"dy":0.0017,"dx":0.0017,"nx":28,"ny":28,"refTime":"2023-11-03T21:00:00:Z","depth":0,"parameterNumber":2,"parameterNumberName":"U-component_of_WINDS"},"data":[0,0,0,0,0,0,0,0,0,0,0,0,0,0,0,0,0,0,0,0,0,0,0,0,0,0,0,0,0,0,0,0,0,0,0,0,0,0,0,0,0,0,0,0,0,0,0,0,0,0,0,0,0,0,0,0,0,0,-4.3094,-4.3094,0,-4.3025,-4.3024,-4.3023,-4.2851,-4.2848,-4.2844,-4.2841,-4.2774,-4.2776,-4.2778,0,0,0,0,0,0,0,0,0,0,0,0,0,-4.3084,-4.3085,-4.3095,-4.3094,-4.3093,-4.3025,-4.3024,-4.3023,-4.2852,-4.2848,-4.2843,-4.2839,-4.2774,-4.2776,-4.2778,0,0,0,0,0,0,0,0,0,0,0,0,0,-4.3059,-4.3085,-4.3095,-4.2999,-4.299,-4.3025,-4.3024,-4.3023,-4.2853,-4.2847,-4.2842,-4.2837,-4.2773,-4.2776,-4.2778,-4.2902,0,0,-4.2785,-4.2787,0,0,0,0,0,0,0,0,-4.3061,-4.306,-4.3014,-4.3006,-4.2995,-4.2941,-4.2996,-4.2983,-4.2854,-4.2905,-4.2841,-4.2834,-4.2835,-4.2832,-4.2831,-4.2899,-4.2896,-4.2786,-4.2787,-4.2788,-4.2789,0,0,0,0,0,0,0,-4.3063,-4.3062,-4.3067,-4.3014,-4.3002,-4.2961,-4.2952,-4.2993,-4.2902,-4.29,-4.2887,-4.2881,-4.2828,-4.2829,-4.2828,-4.2895,-4.2786,-4.2788,-4.2789,-4.279,-4.3064,-4.307,0,0,0,0,0,0,-4.3078,-4.3064,-4.3069,-4.3065,-4.3015,-4.2966,-4.2955,-4.2964,-4.29,-4.2885,-4.2886,-4.2874,-4.2827,-4.2825,-4.2825,-4.2967,-4.2788,-4.279,-4.2792,-4.3058,-4.3065,-4.3072,0,0,0,0,0,0,-4.3078,-4.308,-4.3072,-4.3061,-4.3057,-4.2972,-4.2983,-4.2966,-4.2966,-4.289,-4.2873,-4.2903,-4.2823,-4.2822,-4.2884,-4.2962,-4.2792,-4.2794,-4.3052,-4.3061,-4.3069,-4.3253,0,0,0,0,0,0,-4.3078,-4.3081,-4.3126,-4.3063,-4.3058,-4.3132,-4.2988,-4.2968,-4.297,-4.2953,-4.2901,-4.2887,-4.2819,-4.2882,-4.2887,-4.2963,-4.2796,-4.3044,-4.3056,-4.3066,-4.3239,-4.3267,-4.329,0,0,0,0,0,-4.3079,-4.3181,-4.3129,-4.3131,-4.3113,-4.3136,-4.3134,-4.3051,-4.2977,-4.3022,-4.2974,-4.2889,-4.2953,-4.289,-4.2894,-4.2972,-4.3039,-4.3052,-4.3065,-4.3228,-4.3261,-4.3289,0,0,0,0,0,0,-4.3256,-4.3171,-4.3112,-4.3197,-4.3175,-4.3107,-4.3162,-4.3089,-4.3088,-4.3073,-4.2972,-4.2962,-4.3039,-4.3011,-4.2942,-4.309,-4.2982,-4.2997,-4.3105,-4.3136,-4.3161,-4.3166,-4.2798,0,0,0,0,0,-4.3305,-4.333,-4.3255,-4.3337,-4.3329,-4.3248,-4.3255,-4.3193,-4.3167,-4.3157,-4.3113,-4.3093,-4.3108,-4.312,-4.313,-4.3234,-4.3222,-4.329,-4.3316,-4.3337,-4.3351,-4.3406,-4.3436,-4.3115,-4.3115,-4.3114,0,0,-4.3406,-4.3363,-4.3385,-4.3372,-4.3347,-4.3377,-4.3241,-4.3278,-4.33,-4.3163,-4.322,-4.3187,-4.3157,-4.3242,-4.3277,-4.3222,-4.3437,-4.3354,-4.3371,-4.3373,-4.3423,-4.3453,-4.348,-4.3124,-4.3122,-4.312,0,0,-4.3606,-4.3576,-4.3641,-4.362,-4.3584,-4.353,-4.3546,-4.3489,-4.3462,-4.3517,-4.3416,-4.3441,-4.3469,-4.3452,-4.3448,-4.3644,-4.3567,-4.365,-4.3783,-4.3838,-4.3863,-4.3885,-4.3957,-4.3983,-4.3664,-4.3665,-4.3665,0,-4.3737,-4.3776,-4.3685,-4.3728,-4.3726,-4.3603,-4.367,-4.3654,-4.3625,-4.3627,-4.3565,-4.3599,-4.357,-4.365,-4.3698,-4.3698,-4.3715,-4.3656,-4.3867,-4.3888,-4.3907,-4.3974,-4.4001,-4.3675,-4.3674,-4.3673,-4.3672,0,-4.394,-4.3969,-4.4026,-4.4,-4.4004,-4.406,-4.3979,-4.3995,-4.3933,-4.3887,-4.3945,-4.3907,-4.3907,-4.3921,-4.3862,-4.3994,-4.3961,-4.3884,-4.3774,-4.395,-4.4011,-4.4036,-4.369,-4.3686,-4.3683,-4.3681,0,0,-4.4248,-4.4171,-4.4194,-4.4181,-4.4134,-4.4156,-4.4207,-4.4206,-4.4223,-4.4207,-4.4248,-4.4276,-4.4205,-4.42,-4.4138,-4.4186,-4.4346,-4.4104,-4.4102,-4.4151,-4.4491,-4.455,-4.4581,-4.4295,-4.4299,-4.4303,-4.4494,0,-4.4437,-4.4518,-4.4438,-4.4536,-4.4562,-4.4447,-4.4492,-4.4469,-4.4427,-4.4445,-4.4399,-4.4421,-4.4325,-4.4322,-4.4364,-4.4318,-4.4413,-4.4303,-4.4334,-4.4336,-4.4346,-4.4612,-4.4674,-4.4856,-4.4517,-4.4521,-4.4524,0,-4.4668,-4.4662,-4.4763,-4.471,-4.4719,-4.476,-4.4754,-4.4772,-4.4745,-4.4711,-4.4707,-4.4631,-4.468,-4.4573,-4.4639,-4.4566,-4.4574,-4.4554,-4.4559,-4.4559,-4.4441,-4.4621,-4.4912,-4.494,-4.4561,-4.4558,-4.4555,0,-4.4885,-4.4902,-4.4965,-4.4957,-4.4898,-4.493,-4.4907,-4.4874,-4.4879,-4.4875,-4.4878,-4.488,-4.4881,-4.4886,-4.4814,-4.4742,-4.489,-4.4777,-4.4865,-4.4868,-4.4902,-4.4901,-4.52,-4.4907,-4.4906,-4.4906,-4.4905,0,-4.5104,-4.517,-4.5061,-4.51,-4.5172,-4.508,-4.5154,-4.5119,-4.5092,-4.5123,-4.5024,-4.5056,-4.4959,-4.4981,-4.4926,-4.4991,-4.4992,-4.4967,-4.4952,-4.4977,-4.498,-4.4981,-4.4967,-4.4913,-4.4911,-4.491,-4.4909,0,-4.5358,-4.5287,-4.5348,-4.5287,-4.5273,-4.5329,-4.5277,-4.5312,-4.5264,-4.5305,-4.531,-4.5235,-4.5257,-4.5185,-4.5196,-4.5158,-4.5254,-4.5217,-4.5263,-4.5252,-4.5345,-4.5338,-4.5656,-4.5694,-4.5376,-4.5379,-4.5382,0,-4.5503,-4.5551,-4.5495,-4.5508,-4.549,-4.5513,-4.5518,-4.5431,-4.5441,-4.5414,-4.5453,-4.5466,-4.5472,-4.5512,-4.546,-4.5468,-4.5432,-4.5542,-4.5432,-4.5456,-4.5435,-4.5433,-4.5438,-4.5566,-4.557,-4.5573,-4.5575,0,-4.5768,-4.5731,-4.5741,-4.574,-4.5749,-4.5744,-4.5733,-4.575,-4.5656,-4.5673,-4.5693,-4.5698,-4.5708,-4.5724,-4.5721,-4.5698,-4.5623,-4.561,-4.5632,-4.5658,-4.5683,-4.5672,-4.5326,-4.5604,-4.5601,-4.5599,-4.5597,-4.5596,-4.5972,-4.601,-4.5977,-4.5992,-4.5975,-4.5967,-4.5997,-4.5953,-4.5967,-4.5968,-4.5916,-4.5948,-4.5922,-4.591,-4.5896,-4.5921,-4.5869,-4.59,-4.5908,-4.5917,-4.5933,-4.5679,-4.592,-4.5919,-4.5918,-4.5917,-4.5917,0,-4.6233,-4.6206,-4.6221,-4.6208,-4.6221,-4.6147,-4.6132,-4.6148,-4.6176,-4.6157,-4.6165,-4.619,-4.6205,-4.6155,-4.6163,-4.6193,-4.6158,-4.6198,-4.6195,-4.6192,-4.5978,-4.5959,-4.6226,-4.6226,-4.6225,-4.6225,-4.6225,-4.6225,-4.637,-4.6431,-4.6391,-4.6443,-4.6416,-4.6445,-4.6443,-4.6436,-4.6421,-4.6452,-4.6464,-4.643,-4.64,-4.6405,-4.6416,-4.6401,-4.641,-4.6462,-4.6435,-4.6237,-4.6207,-4.6178,-4.616,-4.6464,-4.6464,-4.6647,-4.6649,-4.665]},{"header":{"parameterUnit":"m.s-1","parameterCategory":1,"la1":30.2991,"la2":30.254,"lo1":-89.0895,"lo2":-89.0444,"dy":0.0017,"dx":0.0017,"nx":28,"ny":28,"refTime":"2023-11-03T21:00:00:Z","depth":0,"parameterNumber":3,"parameterNumberName":"V-component_of_WINDS"},"data":[0,0,0,0,0,0,0,0,0,0,0,0,0,0,0,0,0,0,0,0,0,0,0,0,0,0,0,0,0,0,0,0,0,0,0,0,0,0,0,0,0,0,0,0,0,0,0,0,0,0,0,0,0,0,0,0,0,0,0.2572,0.2571,0,0.2471,0.247,0.2469,0.2452,0.2453,0.2454,0.2455,0.2342,0.2338,0.2334,0,0,0,0,0,0,0,0,0,0,0,0,0,0.2745,0.2742,0.2572,0.2571,0.257,0.2471,0.247,0.2468,0.2452,0.2453,0.2455,0.2456,0.2343,0.2339,0.2334,0,0,0,0,0,0,0,0,0,0,0,0,0,0.2659,0.2741,0.2573,0.255,0.2547,0.2471,0.247,0.2468,0.2452,0.2453,0.2455,0.2456,0.2345,0.2339,0.2333,0.227,0,0,0.2316,0.2313,0,0,0,0,0,0,0,0,0.2664,0.2653,0.2555,0.2552,0.2548,0.2476,0.2489,0.2401,0.2452,0.2488,0.2455,0.2457,0.2385,0.2376,0.2353,0.2265,0.226,0.2315,0.2312,0.2309,0.2307,0,0,0,0,0,0,0,0.267,0.2657,0.2532,0.2553,0.2549,0.2543,0.2532,0.2472,0.2429,0.2485,0.2484,0.2472,0.2383,0.2359,0.2351,0.2258,0.2315,0.231,0.2307,0.2304,0.2112,0.211,0,0,0,0,0,0,0.2681,0.2662,0.2535,0.2529,0.2611,0.2539,0.2527,0.2498,0.243,0.2421,0.2471,0.2472,0.2368,0.2357,0.2347,0.2267,0.2309,0.2304,0.23,0.2113,0.2111,0.2109,0,0,0,0,0,0,0.2685,0.267,0.2539,0.2595,0.2578,0.2534,0.2502,0.2495,0.2471,0.242,0.2411,0.2455,0.2369,0.2355,0.229,0.2263,0.2301,0.2296,0.2115,0.2113,0.211,0.2108,0,0,0,0,0,0,0.269,0.2672,0.2648,0.2595,0.2575,0.2486,0.25,0.2492,0.2462,0.2462,0.2402,0.2394,0.2369,0.2298,0.2284,0.2255,0.2291,0.2117,0.2114,0.2111,0.211,0.2105,0.2102,0,0,0,0,0,0.2696,0.265,0.2647,0.2632,0.2546,0.2485,0.2473,0.2448,0.246,0.2435,0.2403,0.2396,0.2269,0.2292,0.2275,0.2245,0.2119,0.2115,0.2111,0.2112,0.2106,0.2102,0,0,0,0,0,0,0.2697,0.2642,0.2639,0.2574,0.2535,0.2482,0.245,0.2443,0.2397,0.2398,0.2367,0.2354,0.229,0.2261,0.2288,0.218,0.2194,0.2187,0.22,0.2195,0.2191,0.2197,0.2286,0,0,0,0,0,0.2691,0.2649,0.2602,0.2549,0.253,0.2494,0.2466,0.2451,0.2407,0.2389,0.2352,0.2308,0.2258,0.2225,0.2176,0.2107,0.2092,0.2078,0.2074,0.2071,0.2063,0.2023,0.2016,0.2097,0.2097,0.2097,0,0,0.2675,0.264,0.2614,0.2548,0.2516,0.247,0.2479,0.243,0.2395,0.2381,0.2317,0.2289,0.2237,0.217,0.2138,0.2143,0.2039,0.2066,0.2064,0.2058,0.2019,0.2011,0.2004,0.2095,0.2095,0.2096,0,0,0.2623,0.2593,0.2546,0.2515,0.2467,0.2444,0.2433,0.2382,0.2363,0.23,0.2288,0.2245,0.2161,0.2124,0.2094,0.2032,0.2022,0.2017,0.1994,0.1955,0.1948,0.1942,0.1918,0.191,0.2011,0.2011,0.2011,0,0.2608,0.2542,0.2522,0.2474,0.2444,0.2434,0.2384,0.2354,0.2291,0.227,0.2279,0.2173,0.2137,0.206,0.2046,0.2023,0.2007,0.2021,0.1952,0.1945,0.1939,0.1916,0.1907,0.201,0.201,0.201,0.201,0,0.2525,0.248,0.2447,0.239,0.2358,0.2309,0.228,0.2249,0.2237,0.2213,0.2148,0.2106,0.2048,0.203,0.2016,0.1951,0.1956,0.1959,0.1972,0.1932,0.1908,0.1899,0.2009,0.201,0.201,0.201,0,0,0.2466,0.2403,0.2391,0.2366,0.2314,0.2276,0.2227,0.2175,0.2148,0.2106,0.2062,0.1992,0.1995,0.1961,0.1944,0.1911,0.1862,0.1917,0.1916,0.1906,0.1784,0.178,0.177,0.1858,0.1856,0.1854,0.1788,0,0.2406,0.2321,0.2303,0.2228,0.2185,0.2176,0.2133,0.2095,0.2071,0.2029,0.2001,0.1952,0.1961,0.194,0.1907,0.1875,0.1836,0.188,0.1812,0.181,0.1823,0.1758,0.1754,0.1693,0.1779,0.1777,0.1776,0,0.2323,0.2284,0.2205,0.2161,0.2141,0.2103,0.2054,0.2015,0.1971,0.1956,0.1921,0.1908,0.1854,0.1874,0.1798,0.1828,0.18,0.178,0.1777,0.1766,0.1788,0.1743,0.1673,0.1663,0.1762,0.1763,0.1764,0,0.2286,0.2212,0.2156,0.2135,0.2081,0.2055,0.2031,0.1989,0.1959,0.1916,0.1895,0.1845,0.1816,0.1776,0.1749,0.1767,0.1675,0.1692,0.1657,0.1658,0.1635,0.1636,0.1556,0.1623,0.1623,0.1623,0.1623,0,0.2218,0.217,0.2139,0.2103,0.2049,0.2029,0.1974,0.195,0.1914,0.1872,0.1861,0.1821,0.179,0.1745,0.1724,0.1663,0.1651,0.1635,0.1629,0.1634,0.1635,0.1612,0.1614,0.1621,0.1621,0.1622,0.1622,0,0.2164,0.2142,0.208,0.2037,0.2024,0.1986,0.1947,0.1911,0.189,0.1837,0.1823,0.1787,0.1734,0.1705,0.1637,0.1623,0.1554,0.1552,0.1569,0.1566,0.1532,0.1534,0.1431,0.1415,0.1496,0.1495,0.1495,0,0.2121,0.2084,0.2038,0.2011,0.1988,0.1944,0.1915,0.1894,0.1862,0.1812,0.1782,0.173,0.1686,0.1602,0.1567,0.1515,0.151,0.1478,0.1501,0.1507,0.1506,0.1507,0.1502,0.1472,0.1471,0.147,0.147,0,0.2046,0.2037,0.1997,0.1952,0.1918,0.1881,0.1845,0.1822,0.1795,0.176,0.1708,0.1675,0.1609,0.1555,0.1502,0.1474,0.1465,0.1464,0.1452,0.1454,0.1465,0.1456,0.1554,0.1465,0.1465,0.1466,0.1466,0.1466,0.1993,0.196,0.1923,0.1878,0.185,0.1817,0.1781,0.1757,0.1714,0.166,0.165,0.1595,0.1552,0.148,0.1451,0.1405,0.1411,0.1395,0.139,0.1386,0.1383,0.1476,0.1396,0.1396,0.1396,0.1396,0.1396,0,0.1915,0.1892,0.1851,0.1802,0.1767,0.1768,0.1728,0.1697,0.1649,0.1613,0.1572,0.1511,0.146,0.1424,0.1371,0.1342,0.1336,0.1328,0.1328,0.1321,0.1382,0.1396,0.1333,0.1333,0.1333,0.1333,0.1333,0.1333,0.187,0.1814,0.1801,0.173,0.1707,0.1655,0.1632,0.16,0.1571,0.1505,0.1464,0.1443,0.1405,0.135,0.1303,0.1293,0.1273,0.1264,0.1254,0.131,0.1317,0.1323,0.1336,0.1261,0.1261,0.1196,0.1195,0.1195]}]]